Hourly Data Report for April 06, 2018

CLYDE RIVER A
NUNAVUT
Current Station Operator: NAVCAN

70°29'09.000" N
68°31'01.000" W
26.50 m
2400804
71090
YCY

Download Data

Hourly Data (April 2018)
Hourly Data Report for April 6, 2018
TIME
LST
Temp Definition
°C
Dew Point Definition
°C
Rel Hum Definition
%
Precip. Amount Definition
mm

Wind Dir Definition
10's deg

Wind Spd Definition
km/h
Visibility Definition
km
Stn Press Definition
kPa
Hmdx Definition


Wind Chill Definition


Weather Definition


00:00 -21.6 -24.2 80 0.0 31 15 16.1 101.93   -31 LegendNANA
01:00 -19.8 -22.3 81 0.0 31 11 16.1 101.91   -27 LegendNANA
02:00 -19.3 -22.2 78 0.0 30 9 16.1 101.87   -26 Snow
03:00 -19.2 -22.1 78 0.0 31 11 11.3 101.83   -27 Snow
04:00 -19.1 -21.9 79 0.0 31 11 16.1 101.80   -27 Snow
05:00 -19.3 -22.1 79 0.0 32 13 4.8 101.77   -28 Snow
06:00 -19.1 -21.9 79 0.0 31 13 16.1 101.74   -27 Snow
07:00 -18.9 -21.9 78 0.0 32 18 11.3 101.68   -29 Snow
08:00 -18.7 -21.9 76 0.0 32 22 16.1 101.63   -29 Snow
09:00 -18.5 -21.6 77 0.0 33 24 14.5 101.58   -29 Snow
10:00 -18.2 -21.4 76 0.0 32 21 9.7 101.50   -28 Snow
11:00 -18.0 -21.3 76 0.0 33 24 16.1 101.44   -29 Snow
12:00 -17.7 -21.1 75 0.0 32 17 16.1 101.40   -27 Snow
13:00 -17.4 -20.9 74 0.0 32 18 16.1 101.34   -27 Snow
14:00 -17.4 -20.9 74 0.0 32 18 16.1 101.28   -27 LegendNANA
15:00 -17.5 -20.8 76 0.0 32 18 16.1 101.23   -27 Snow
16:00 -17.8 -20.9 77 0.0 32 24 16.1 101.16   -29 Snow
17:00 -18.4 -20.9 81 0.0 34 24 16.1 101.09   -29 Snow
18:00 -18.5 -20.9 82 0.0 34 21 16.1 101.05   -29 Snow
19:00 -18.7 -21.1 82 0.0 34 18 16.1 101.01   -28 Snow
20:00 -18.8 -21.0 83 0.0 33 21 16.1 100.97   -29 Snow
21:00 -19.0 -21.2 83 0.0 32 21 16.1 100.91   -29 Snow
22:00 -19.6 -21.8 83 0.0 33 21 14.5 100.85   -30 Snow
23:00 -20.1 -22.4 82 0.0 34 21 16.1 100.79   -31 Snow

Notes on Data Quality.

Legend

  • E = Estimated
  • M = Missing
  • NA = Not Available*
  • [empty] = Indicates an unobserved value
Date modified: